Wind_Speed
20 15 22 25 26 26 24 24 24 22 14 10 15 20 15 12 13 18 16 11 8 10 15 21 18 14 11 9 6 6 3 4 7 9 9 6 5 6 6 8 8 9 11 9
22 26 26 27 26 27 28 26 23 21 18 14 15 15 13 14 17 20 17 10 8 12 16 15 18 15 13 11 9 5 4 2 5 7 6 3 5 4 5 7 6 5 4 7
28 27 27 28 26 26 25 25 20 23 17 16 16 15 14 21 18 15 12 5 1 14 14 14 14 16 14 11 9 7 3 1 2 6 6 6 7 8 6 6 8 7 2 4
31 27 28 29 28 26 25 25 25 19 15 12 14 14 13 15 16 11 6 9 10 15 15 15 14 16 15 13 11 7 5 2 1 8 10 9 8 10 6 4 8 8 3 5
31 29 29 29 28 28 23 24 22 17 15 16 15 12 14 15 17 7 1 6 13 16 16 16 15 18 16 14 12 9 6 3 1 4 8 10 11 11 7 3 8 8 4 2
27 23 29 30 26 26 25 22 17 12 12 13 16 15 14 15 2 4 2 6 13 14 15 15 18 19 15 14 13 10 8 4 1 3 6 9 10 11 8 5 6 8 7 4
27 30 30 29 28 23 22 17 11 12 12 12 17 17 16 12 7 1 2 5 12 13 14 14 14 13 16 14 14 10 9 6 2 5 4 8 8 11 10 9 9 9 12 9
22 23 32 26 31 26 23 16 13 15 12 16 15 13 4 2 6 4 2 6 11 12 13 14 14 15 16 15 14 12 10 8 4 4 4 6 8 8 7 10 10 9 11 11
22 28 24 32 24 25 21 22 18 18 16 13 7 13 10 12 9 9 8 9 11 10 13 14 14 15 16 16 14 9 9 8 5 4 3 4 5 8 6 7 10 12 12 15
23 17 28 29 25 24 22 19 16 12 17 15 13 14 7 12 8 11 11 8 10 12 14 13 13 14 15 17 15 10 8 8 6 4 4 4 5 8 8 8 9 12 14 14
25 16 19 23 27 22 18 20 18 14 14 12 11 10 15 11 9 11 11 12 12 14 14 13 13 15 15 17 16 12 10 9 8 5 4 3 6 6 9 9 13 11 14 14
31 10 16 25 25 26 23 23 18 10 17 12 11 3 10 9 9 6 16 14 14 15 14 14 13 16 16 16 17 14 12 11 9 7 8 4 7 7 9 10 12 10 17 15
26 20 14 20 21 24 23 24 21 15 9 15 12 11 11 12 9 9 11 16 14 15 14 13 13 12 14 16 17 16 13 12 12 10 10 5 9 9 7 8 10 10 15 18
21 19 21 15 17 22 25 24 22 19 13 14 15 17 13 12 9 9 10 18 17 14 14 14 13 13 15 17 17 17 15 14 12 12 12 8 9 10 8 9 9 11 10 17
21 26 22 25 24 27 26 27 25 25 20 19 17 17 11 12 8 10 10 15 17 16 16 14 12 12 15 17 17 17 16 16 14 13 15 11 10 9 9 10 12 11 15 13
19 22 24 24 28 25 28 28 26 26 25 22 21 18 14 10 18 14 15 15 14 17 17 16 14 14 13 18 17 17 17 18 15 14 17 14 13 11 10 10 11 13 14 16
12 19 20 23 23 25 24 27 26 21 21 22 21 15 13 12 11 9 16 14 14 15 17 17 15 14 17 20 19 18 17 20 17 15 17 16 14 14 12 12 11 10 12 15
15 20 17 18 19 26 16 19 22 21 19 20 18 16 17 14 9 12 15 15 14 15 16 17 15 15 21 22 21 20 19 20 18 16 18 18 17 16 15 14 13 12 11 15
18 17 11 16 19 15 21 25 22 20 21 19 19 17 15 17 14 11 13 9 15 15 15 15 22 22 23 23 23 21 20 21 20 18 19 19 19 20 18 16 18 14 12 13
18 16 12 11 21 24 17 22 21 15 16 17 18 15 14 15 12 10 11 11 16 14 14 17 26 26 25 24 26 23 20 22 20 20 19 20 20 21 20 18 19 17 14 13
16 15 18 13 11 16 22 20 22 19 9 16 16 17 16 13 9 7 11 11 16 16 17 24 29 27 28 27 27 23 22 21 22 21 20 21 22 23 21 20 20 17 16 15
19 16 13 16 13 15 15 20 22 8 5 9 15 16 13 8 9 10 8 8 16 16 17 24 24 25 30 29 27 24 22 22 22 21 21 22 23 22 22 23 21 19 17 14
8 12 12 12 13 5 7 8 8 9 11 9 17 15 14 12 13 13 9 8 12 12 13 22 24 24 29 31 30 26 23 23 23 21 22 24 26 23 24 24 22 19 18 14
11 11 3 17 11 19 13 11 14 12 10 11 11 14 14 13 14 12 10 12 11 11 12 21 23 23 25 31 30 28 25 26 24 22 23 26 26 23 25 23 22 20 20 18
7 11 14 12 7 14 12 12 15 12 12 12 9 11 15 16 15 14 11 11 10 10 16 20 20 23 26 29 29 30 28 29 25 24 23 26 25 26 23 24 24 24 23 24
1 3 6 5 14 9 12 4 18 14 15 13 10 11 11 10 12 13 12 10 9 11 18 17 16 21 25 29 29 30 31 31 27 24 24 26 25 27 22 23 21 24 20 25
Wind_Direction
220 225 227 224 225 236 243 248 249 252 239 267 233 240 240 265 283 287 290 285 246 185 149 150 162 174 172 193 199 222 250 289 309 307 330 332 345 16 17 340 291 282 273 256
216 224 226 231 230 230 241 250 260 272 283 291 288 271 280 290 270 265 264 271 270 145 139 150 158 169 177 194 207 199 229 288 315 335 333 327 331 303 317 355 13 305 295 225
222 222 222 234 227 230 232 244 254 262 276 276 282 270 265 263 264 263 249 214 193 144 151 153 159 171 181 195 187 199 186 234 341 340 315 332 313 307 306 360 3 5 206 194
228 226 226 223 233 221 232 232 239 250 270 270 283 292 287 297 277 258 257 204 171 151 155 154 163 171 183 191 184 165 174 217 127 11 4 5 356 346 331 4 13 29 122 172
226 222 226 225 219 231 234 236 241 237 245 257 263 270 277 283 284 239 131 233 171 146 160 160 166 171 183 180 169 170 168 173 126 44 13 20 10 356 2 26 33 60 90 140
230 234 226 230 231 218 233 236 244 253 261 254 249 254 268 268 26 83 336 105 132 150 155 153 162 165 178 168 167 167 173 176 215 67 16 17 7 16 42 49 41 34 43 83
227 228 232 230 228 224 217 226 224 225 236 253 253 248 250 265 306 115 10 96 139 145 149 153 162 162 168 176 161 174 170 177 209 80 36 25 51 54 66 62 41 33 41 67
219 222 221 218 228 219 209 204 228 224 226 246 269 239 258 225 149 115 131 74 122 146 147 158 164 167 167 169 164 204 167 156 188 97 77 50 62 72 64 59 52 48 54 79
206 229 213 227 210 227 199 212 215 250 262 274 232 230 266 159 174 201 175 136 130 146 148 159 161 171 168 164 168 184 175 164 163 118 112 73 70 72 72 60 60 49 72 88
233 217 226 203 216 212 221 196 208 227 242 264 280 277 264 145 196 151 126 142 140 147 155 160 166 166 166 162 166 180 165 164 158 150 165 112 84 84 76 73 68 60 75 96
227 248 213 216 205 198 202 228 199 224 223 230 248 269 124 151 163 133 153 141 153 155 164 163 164 161 168 164 165 181 185 166 148 160 115 138 101 85 79 81 95 77 94 85
212 227 242 216 202 200 207 215 203 214 220 248 254 289 90 105 134 151 124 143 160 160 169 166 163 163 173 171 164 176 194 165 167 163 141 147 117 97 90 94 105 87 84 97
201 226 237 236 210 186 211 217 217 206 221 217 239 242 165 165 179 156 157 142 161 164 169 166 165 166 177 174 169 172 189 179 173 170 136 151 126 110 100 108 114 109 91 90
187 220 222 228 211 179 194 216 215 214 209 227 235 251 136 151 172 181 164 148 162 172 167 169 170 169 180 177 174 173 183 176 174 164 147 157 140 140 129 123 121 119 103 97
187 212 225 229 237 195 195 205 221 215 215 221 226 245 203 184 186 204 166 154 162 174 171 172 174 170 178 175 179 175 180 169 172 169 148 159 150 153 150 133 122 114 120 116
188 210 215 226 229 244 203 202 213 225 215 215 232 236 234 225 191 192 160 161 172 173 176 178 177 173 177 174 183 180 176 159 170 173 149 164 170 167 145 125 125 124 120 130
232 206 201 225 222 235 222 200 202 219 228 210 218 224 242 240 210 203 161 166 171 177 180 180 177 178 176 173 186 172 176 159 170 176 158 169 178 163 155 152 145 128 124 114
268 206 198 212 224 228 233 207 207 216 223 223 227 211 213 237 197 210 165 166 169 173 184 178 173 171 171 173 181 173 176 165 174 186 168 172 178 167 171 162 150 135 126 121
244 201 196 207 220 230 217 230 209 203 212 212 219 225 220 211 238 232 203 189 166 171 179 175 169 164 167 175 177 176 182 175 182 189 173 175 184 168 177 170 152 154 147 143
241 185 196 196 215 221 224 212 225 223 219 201 206 211 207 230 217 217 197 189 160 163 170 168 163 162 167 176 175 179 188 179 189 189 184 177 184 174 176 174 159 167 168 165
221 189 196 224 211 214 217 218 200 212 231 192 206 191 205 219 224 233 179 177 161 165 169 168 162 167 170 175 177 182 190 186 191 193 186 175 181 178 179 174 168 176 179 182
214 186 196 211 230 221 222 213 219 162 184 201 190 185 200 210 207 233 179 182 161 159 165 166 164 169 169 174 180 188 194 188 194 197 185 175 174 173 180 175 173 182 193 190
295 185 207 215 215 273 263 253 136 147 224 227 192 182 190 195 208 216 174 145 142 159 166 169 163 166 170 177 184 189 195 191 194 200 184 171 168 178 178 174 177 183 197 200
271 6 303 230 218 227 246 277 156 164 203 181 174 174 181 188 200 209 212 157 161 178 170 168 167 167 174 183 186 189 192 192 198 197 181 169 164 177 171 177 185 190 193 206
341 358 341 305 207 244 202 332 141 183 186 164 163 184 179 186 193 199 186 163 175 189 170 173 176 171 179 183 185 186 191 193 200 193 179 169 170 177 177 183 191 197 200 201
16 314 301 336 312 313 292 354 320 249 181 160 146 160 170 189 173 178 172 163 192 186 170 175 178 175 177 181 189 189 192 194 198 191 184 178 177 179 187 189 197 202 209 201
Height
722 733 732 725 717 721 719 717 715 699 684 708 710 704 698 692 693 694 691 689 690 694 701 714 726 735 741 746 747 748 748 748 748 746 744 743 742 740 739 738 736 735 735 735
723 721 714 710 708 715 716 718 714 697 685 692 699 700 693 691 692 687 686 685 685 691 702 713 725 733 740 744 745 746 747 747 747 745 744 743 741 740 739 738 736 734 733 733
711 701 703 705 705 712 711 715 713 711 695 691 699 707 699 686 677 674 673 676 680 691 702 712 723 732 738 741 743 744 746 747 746 745 744 742 741 739 738 737 736 733 733 733
695 690 693 699 699 698 714 694 697 701 711 729 698 729 701 690 683 673 672 674 678 687 697 709 720 730 735 739 741 743 745 746 745 745 744 742 741 739 737 736 736 734 733 734
681 684 689 687 688 684 694 682 687 693 708 712 716 727 707 684 686 674 672 670 673 683 693 705 716 726 733 737 740 742 744 745 745 745 745 743 741 740 737 737 736 735 732 734
673 661 665 669 664 668 672 683 685 693 704 728 712 718 711 694 683 677 671 668 675 683 692 704 715 724 730 735 739 741 743 745 745 745 745 744 743 740 739 738 737 736 734 734
671 666 654 654 670 660 671 690 722 735 734 733 700 710 698 674 669 670 673 671 676 683 693 704 714 722 728 733 737 740 742 744 745 745 746 746 745 743 741 740 739 738 736 735
678 683 655 641 654 667 668 685 711 742 737 721 686 711 688 662 659 662 667 671 677 684 694 704 712 720 726 731 735 738 741 743 745 745 747 747 747 745 744 742 741 740 738 737
662 662 636 638 637 647 666 687 675 702 693 705 695 684 666 660 665 665 668 674 682 687 695 703 711 718 724 730 734 736 739 742 744 746 748 748 747 746 746 744 743 743 741 741
638 660 632 630 632 637 651 655 697 696 729 733 701 687 681 676 671 666 672 678 683 688 696 703 710 716 722 728 733 737 739 742 744 746 747 748 748 748 748 746 745 745 744 744
630 639 636 624 636 649 659 664 669 682 691 715 722 694 656 664 662 668 672 675 683 688 696 702 708 715 721 727 732 736 738 741 744 747 748 749 749 749 750 748 747 747 747 747
617 631 650 630 616 623 639 656 660 690 702 686 687 693 650 653 656 661 668 673 682 686 693 698 705 713 720 726 730 735 737 740 743 746 748 750 750 751 751 751 751 749 751 751
615 638 654 643 624 622 645 646 649 660 672 688 700 688 648 650 655 656 662 669 681 684 691 696 703 711 717 723 727 732 736 738 741 745 748 751 751 753 753 753 754 754 754 756
606 624 638 641 628 626 647 646 644 658 680 684 678 669 656 658 659 658 658 665 674 681 688 694 701 708 714 720 724 729 733 736 740 744 748 752 753 754 754 755 756 758 757 759
601 629 622 621 614 613 627 640 644 651 656 674 669 666 655 652 655 653 654 661 669 678 684 691 698 704 711 717 721 726 731 734 738 742 747 752 754 755 755 756 758 759 761 761
591 620 622 626 617 611 623 625 636 638 644 655 657 660 640 637 639 645 650 658 666 673 679 686 694 700 707 713 719 723 728 732 738 741 746 752 754 756 757 758 760 762 763 765
600 604 622 636 616 617 626 616 624 632 631 639 657 649 637 639 639 641 647 652 660 666 672 680 688 696 703 709 716 720 726 731 736 740 744 750 754 756 758 760 762 763 765 767
616 600 608 628 624 646 610 592 604 621 625 624 628 630 634 634 632 634 636 645 652 659 666 674 683 691 700 707 714 719 724 729 735 738 742 747 752 755 758 760 762 765 767 769
590 591 609 627 630 620 608 600 605 617 625 616 624 624 625 627 629 634 628 633 643 650 658 668 678 687 697 704 711 717 721 727 732 736 739 744 749 753 757 760 762 766 769 771
584 581 606 615 635 638 608 591 586 593 629 604 611 619 625 625 646 638 627 630 638 645 654 663 673 683 693 701 707 714 719 723 728 732 736 741 746 750 755 759 762 766 769 772
597 595 611 615 622 610 587 578 580 626 626 598 602 610 619 629 627 622 619 626 632 640 649 657 669 677 686 696 704 710 715 719 725 729 733 737 743 748 753 758 762 766 769 771
596 603 604 612 622 626 570 578 597 593 590 591 596 602 612 615 617 618 619 624 630 637 644 653 664 673 683 692 700 707 711 716 722 725 729 734 739 746 751 756 761 765 768 769
622 585 603 597 605 580 571 574 570 577 590 588 590 595 602 610 615 616 619 622 627 634 641 650 659 671 680 687 694 701 708 714 718 722 726 731 736 743 747 753 758 763 766 768
614 619 612 600 587 584 577 573 570 575 582 581 582 589 596 606 609 613 616 621 628 634 639 647 655 666 676 682 689 697 704 710 715 719 723 728 733 740 745 750 755 759 762 765
643 632 624 613 586 579 577 590 573 578 577 578 581 585 592 598 604 607 612 617 624 630 636 644 651 660 670 679 685 692 699 705 709 714 719 724 730 736 742 746 750 754 757 760
645 656 648 634 632 607 593 598 610 586 577 578 581 585 589 593 599 604 610 617 623 627 633 642 648 655 663 673 680 686 693 698 704 709 714 720 726 732 737 742 746 750 753 757